User: anonymous   Login
Location: Killarney Provincial Park Observatory
(46.0124°N, 81.4000°W)
Time: 09:28:57
(UTC-05:00)
Language:

Iridium 22 - Orbit

View from above orbital plane
View from above orbital plane
View from above satellite
View from above satellite

Ground track
Ground track

The orbit data is extracted from the following two-line orbital elements,

1 24907U 97043E   14326.45167733  .00000557  00000-0  19167-3 0   677
2 24907 086.3963 287.9597 0002204 102.4195 353.5813 14.34221958903421
Epoch (UTC): 22 November 2014 10:50:24
Eccentricity: 0.0002204
inclination: 86.3963°
perigee height: 776 km
apogee height: 779 km
right ascension of ascending node: 287.9597°
argument of perigee: 102.4195°
revolutions per day: 14.34221958
mean anomaly at epoch: 353.5813°
orbit number at epoch: 90342

The dashed part of the orbit path shows where the satellite is in the earth's shadow,  

DLR